CZ-4 DEB

基本信息
目录编号:
20849
目录名称:
CZ-4 DEB
国际标识:
1990-081M
轨道中心:
EARTH
物体状态:
在轨
发射日期:
1990-09-03 UTC
轨道信息
数据来源: 国际轨道数据
星历时间: 2026-09-05T06:22:15+0800
半长轴: 7206.386km
偏心率: 0.0037539
轨道倾角: 98.685°
近地点辐角: 228.249°
升交点赤经: 226.500°
平近点角: 131.548°
近地点: 801.196km
远地点: 855.302km
周期: 101.470分钟
每日圈数: 14.191442
详细信息
发射场:
TSC
轨道高度:
LEO
数据来源:
AOE Integration Group
参考系:
TEME
时间系统:
UTC
历元类型:
SGP4
2D轨道图
3D轨道图
轨道高度分析图
轨道倾角分析图
轨道综合分析图
查看轨道综合分析图